Location: downtown San Diego
(32.7310°N, 117.1990°W)
Time: 18:15:49
(UTC-07:00)

Cosmos 1656 Rocket - Pass Details

Date: 19 May 2017
Orbit: 794 x 848 km, 71.1° (Epoch: 23 September)

Event Time Altitude Azimuth Distance (km) Brightness Sun altitude
Rises 21:43:25 0° 347° (NNW) 3,305 7.7 -21.7°
Reaches altitude 10° 21:45:56 10° 354° (N) 2,376 6.7 -22.0°
Maximum altitude 21:51:06 44° 66° (ENE) 1,110 4.1 -22.8°
Enters shadow 21:51:47 42° 86° (E) 1,144 4.1 -22.9°
